Weather History for Madison, SD

Change the Weather History Date:

Friday, November 23, 2012

  Actual Average Record
Temperature  
Mean Temperature 19 °F -  
Max Temperature 24 °F 35 °F 53 °F (2011)
Min Temperature 14 °F 17 °F -2 °F (2013)
Degree Days  
Heating Degree Days 46    
Moisture  
Dew Point 12 °F    
Average Humidity 76    
Maximum Humidity 93    
Minimum Humidity 50    
Precipitation  
Precipitation 0.00 in - - ()
Sea Level Pressure  
Sea Level Pressure 30.38 in    
Wind  
Wind Speed 22 mph (NW)    
Max Wind Speed 38 mph    
Max Gust Speed 50 mph    
Visibility 10 miles    
Events Rain , Snow    
Averages and records for this station are not official NWS values.
T = Trace of Precipitation, MM = Missing Value Source: NWS Daily Summary

Daily Weather History Graph

Daily Weather History Graph

Search for Another Location

Airport:

Trip Planner

Search our weather history database for the weather conditions in past years. The results will help you decide how hot, cold, wet, or windy it might be!

Date:

Astronomy

Nov. 23, 2012 Rise Set
Actual Time 7:34 AM CST 4:55 PM CST
Civil Twilight 7:02 AM CST 5:27 PM CST
Nautical Twilight 6:26 AM CST 6:02 PM CST
Astronomical Twilight 5:52 AM CST 6:37 PM CST
Moon 2:17 PM CST (11/23) 2:46 AM CST (11/23)
Length of Visible Light 10h 24m
Length of Day
9h 20m
Waxing Gibbous, 80% of the Moon is Illuminated
Nov 23
Waxing Gibbous
Nov 28
Full
Dec 6
Last Quarter
Dec 13
New
Dec 19
First Quarter

Hourly Weather History & Observations

Time (CST) Temp. Windchill Dew Point Humidity Pressure Visibility Wind Dir Wind Speed Gust Speed Precip Events Conditions
12:00 AM 23.0 °F 4.9 °F 15.8 °F 74% 30.24 in 10.0 mi NW 32.2 mph 43.7 mph N/A   Overcast
12:20 AM 21.2 °F 1.2 °F 14.0 °F 74% 30.26 in 10.0 mi NNW 38.0 mph 49.5 mph N/A   Overcast
12:40 AM 19.4 °F 0.5 °F 14.0 °F 80% 30.27 in 10.0 mi NNW 29.9 mph 41.4 mph N/A   Overcast
1:00 AM 21.2 °F 2.2 °F 15.8 °F 80% 30.28 in 10.0 mi NW 33.4 mph 42.6 mph N/A   Overcast
1:20 AM 19.4 °F -0.6 °F 14.0 °F 80% 30.28 in 10.0 mi NNW 34.5 mph 40.3 mph N/A   Overcast
1:40 AM 19.4 °F -0.0 °F 14.0 °F 80% 30.29 in 10.0 mi NNW 32.2 mph 41.4 mph N/A   Overcast
2:00 AM 19.4 °F 1.8 °F 14.0 °F 80% 30.30 in 10.0 mi NNW 25.3 mph 39.1 mph N/A   Overcast
2:20 AM 19.4 °F 0.8 °F 15.8 °F 86% 30.30 in 10.0 mi NW 28.8 mph 36.8 mph N/A Snow Light Snow
2:40 AM 19.4 °F -0.0 °F 14.0 °F 80% 30.32 in 10.0 mi NNW 32.2 mph 40.3 mph N/A Rain Light Freezing Rain
3:00 AM 19.4 °F -0.0 °F 14.0 °F 80% 30.32 in 10.0 mi NNW 32.2 mph 38.0 mph N/A   Overcast
3:20 AM 19.4 °F 0.2 °F 14.0 °F 80% 30.33 in 10.0 mi NNW 31.1 mph 39.1 mph N/A   Overcast
3:40 AM 19.4 °F 1.4 °F 14.0 °F 80% 30.33 in 10.0 mi NW 26.5 mph 33.4 mph N/A   Overcast
4:00 AM 17.6 °F 0.9 °F 14.0 °F 86% 30.34 in 10.0 mi NW 20.7 mph 39.1 mph N/A   Overcast
4:20 AM 17.6 °F -1.3 °F 14.0 °F 86% 30.34 in 10.0 mi NNW 27.6 mph 36.8 mph N/A   Mostly Cloudy
4:40 AM 17.6 °F -1.3 °F 14.0 °F 86% 30.34 in 10.0 mi NW 27.6 mph 34.5 mph N/A   Scattered Clouds
5:00 AM 17.6 °F -0.3 °F 14.0 °F 86% 30.36 in 10.0 mi NW 24.2 mph 33.4 mph N/A   Partly Cloudy
5:20 AM 17.6 °F -1.3 °F 14.0 °F 86% 30.36 in 10.0 mi NW 27.6 mph 33.4 mph N/A   Mostly Cloudy
5:40 AM 15.8 °F -2.7 °F 14.0 °F 93% 30.37 in 10.0 mi NW 24.2 mph 38.0 mph N/A   Mostly Cloudy
6:00 AM 15.8 °F -2.3 °F 14.0 °F 93% 30.38 in 10.0 mi NNW 23.0 mph 32.2 mph N/A   Overcast
6:20 AM 15.8 °F -2.7 °F 14.0 °F 93% 30.38 in 10.0 mi NNW 24.2 mph 33.4 mph N/A   Overcast
6:40 AM 15.8 °F -3.1 °F 14.0 °F 93% 30.38 in 10.0 mi NNW 25.3 mph 31.1 mph N/A   Overcast
7:00 AM 15.8 °F -1.9 °F 14.0 °F 93% 30.39 in 10.0 mi NNW 21.9 mph 26.5 mph N/A   Overcast
7:20 AM 15.8 °F -2.7 °F 12.2 °F 86% 30.40 in 10.0 mi NNW 24.2 mph 28.8 mph N/A   Overcast
7:40 AM 15.8 °F -1.5 °F 12.2 °F 86% 30.41 in 10.0 mi NNW 20.7 mph 29.9 mph N/A Snow Light Snow
8:00 AM 15.8 °F -1.1 °F 12.2 °F 86% 30.42 in 10.0 mi NNW 19.6 mph 26.5 mph N/A Snow Light Snow
8:20 AM 15.8 °F -2.3 °F 12.2 °F 86% 30.42 in 10.0 mi NW 23.0 mph 26.5 mph N/A Snow Light Snow
8:40 AM 15.8 °F -1.9 °F 12.2 °F 86% 30.43 in 10.0 mi NW 21.9 mph 26.5 mph N/A Snow Light Snow
9:00 AM 15.8 °F -1.5 °F 12.2 °F 86% 30.43 in 10.0 mi NNW 20.7 mph - N/A Snow Light Snow
9:20 AM 15.8 °F -0.6 °F 12.2 °F 86% 30.44 in 10.0 mi NNW 18.4 mph 25.3 mph N/A Snow Light Snow
9:40 AM 15.8 °F -0.6 °F 10.4 °F 79% 30.44 in 10.0 mi NNW 18.4 mph 26.5 mph N/A Snow Light Snow
10:00 AM 17.6 °F 3.2 °F 10.4 °F 73% 30.45 in 10.0 mi NW 15.0 mph - N/A   Mostly Cloudy
10:20 AM 17.6 °F 2.2 °F 12.2 °F 79% 30.45 in 10.0 mi NW 17.3 mph 21.9 mph N/A   Mostly Cloudy
10:40 AM 17.6 °F 2.7 °F 12.2 °F 79% 30.45 in 10.0 mi NNW 16.1 mph 23.0 mph N/A   Mostly Cloudy
11:00 AM 19.4 °F 5.0 °F 12.2 °F 74% 30.47 in 10.0 mi NNW 16.1 mph 24.2 mph N/A   Scattered Clouds
11:20 AM 19.4 °F 4.1 °F 10.4 °F 68% 30.46 in 10.0 mi NW 18.4 mph 24.2 mph N/A   Mostly Cloudy
11:40 AM 19.4 °F 4.5 °F 12.2 °F 74% 30.45 in 10.0 mi NW 17.3 mph 23.0 mph N/A   Mostly Cloudy
12:00 PM 21.2 °F 8.3 °F 12.2 °F 68% 30.45 in 10.0 mi NNW 13.8 mph 21.9 mph N/A   Mostly Cloudy
12:20 PM 21.2 °F 7.3 °F 12.2 °F 68% 30.44 in 10.0 mi NNW 16.1 mph 21.9 mph N/A   Partly Cloudy
12:40 PM 23.0 °F 9.6 °F 12.2 °F 63% 30.43 in 10.0 mi NW 16.1 mph 21.9 mph N/A   Clear
1:00 PM 23.0 °F 9.2 °F 10.4 °F 59% 30.42 in 10.0 mi NW 17.3 mph 24.2 mph N/A   Clear
1:20 PM 23.0 °F 10.1 °F 10.4 °F 59% 30.42 in 10.0 mi NW 15.0 mph 23.0 mph N/A   Clear
1:40 PM 23.0 °F 8.3 °F 10.4 °F 59% 30.42 in 10.0 mi NW 19.6 mph - N/A   Clear
2:00 PM 23.0 °F 8.3 °F 10.4 °F 59% 30.42 in 10.0 mi NW 19.6 mph 24.2 mph N/A   Clear
2:20 PM 24.8 °F 11.5 °F 10.4 °F 54% 30.41 in 10.0 mi NW 17.3 mph 21.9 mph N/A   Clear
2:40 PM 23.0 °F 10.1 °F 10.4 °F 59% 30.41 in 10.0 mi NW 15.0 mph - N/A   Clear
3:00 PM 24.8 °F 11.9 °F 8.6 °F 50% 30.41 in 10.0 mi NW 16.1 mph 24.2 mph N/A   Clear
3:20 PM 24.8 °F 11.5 °F 8.6 °F 50% 30.41 in 10.0 mi NW 17.3 mph 23.0 mph N/A   Clear
3:40 PM 24.8 °F 12.4 °F 8.6 °F 50% 30.40 in 10.0 mi NW 15.0 mph 21.9 mph N/A   Clear
4:00 PM 23.0 °F 10.6 °F 8.6 °F 54% 30.40 in 10.0 mi NW 13.8 mph - N/A   Clear
4:20 PM 23.0 °F 12.4 °F 10.4 °F 59% 30.40 in 10.0 mi NW 10.4 mph - N/A   Clear
4:40 PM 21.2 °F 9.5 °F 10.4 °F 63% 30.40 in 10.0 mi NW 11.5 mph - N/A   Clear
5:00 PM 19.4 °F 9.5 °F 10.4 °F 68% 30.41 in 10.0 mi NNW 8.1 mph - N/A   Clear
5:20 PM 17.6 °F 7.3 °F 8.6 °F 68% 30.40 in 10.0 mi NW 8.1 mph - N/A   Clear
5:40 PM 15.8 °F 7.2 °F 8.6 °F 73% 30.39 in 10.0 mi NNW 5.8 mph - N/A   Clear
6:00 PM 15.8 °F 7.2 °F 8.6 °F 73% 30.39 in 10.0 mi NNW 5.8 mph - N/A   Clear
6:20 PM 15.8 °F 10.2 °F 10.4 °F 79% 30.38 in 10.0 mi NW 3.5 mph - N/A   Clear
6:40 PM 15.8 °F - 8.6 °F 73% 30.38 in 10.0 mi Calm Calm - N/A   Clear
7:00 PM 15.8 °F - 10.4 °F 79% 30.38 in 10.0 mi Calm Calm - N/A   Clear
7:20 PM 17.6 °F - 10.4 °F 73% 30.38 in 10.0 mi Calm Calm - N/A   Clear
7:40 PM 17.6 °F 12.3 °F 10.4 °F 73% 30.37 in 10.0 mi NNW 3.5 mph - N/A   Clear
8:00 PM 14.0 °F 6.5 °F 8.6 °F 79% 30.37 in 10.0 mi NNW 4.6 mph - N/A   Clear
8:20 PM 14.0 °F 8.2 °F 10.4 °F 86% 30.36 in 10.0 mi NNW 3.5 mph - N/A   Mostly Cloudy
8:40 PM 14.0 °F 6.5 °F 8.6 °F 79% 30.35 in 10.0 mi North 4.6 mph - N/A   Scattered Clouds
9:00 PM 14.0 °F 8.2 °F 8.6 °F 79% 30.35 in 10.0 mi NNE 3.5 mph - N/A   Clear
9:20 PM 14.0 °F - 10.4 °F 86% 30.35 in 10.0 mi Calm Calm - N/A   Clear
9:40 PM 15.8 °F - 10.4 °F 79% 30.34 in 10.0 mi Calm Calm - N/A   Clear
10:00 PM 14.0 °F - 10.4 °F 86% 30.34 in 10.0 mi Calm Calm - N/A   Clear
10:20 PM 15.8 °F - 10.4 °F 79% 30.34 in 10.0 mi Calm Calm - N/A   Clear
10:40 PM 15.8 °F - 10.4 °F 79% 30.34 in 10.0 mi Calm Calm - N/A   Clear
11:00 PM 14.0 °F 5.1 °F 8.6 °F 79% 30.31 in 10.0 mi East 5.8 mph - N/A   Clear
11:20 PM 14.0 °F 8.2 °F 10.4 °F 86% 30.32 in 10.0 mi SW 3.5 mph - N/A   Clear
11:40 PM 15.8 °F - 12.2 °F 86% 30.31 in 10.0 mi Calm Calm - N/A   Scattered Clouds